Location: Hannover
(52.4091°N, 9.7504°E)
Time: 02:31:16
(UTC+01:00)

ISS - Visible Passes

Search period start: 08 December 2021 00:00
Search period end: 18 December 2021 00:00
Orbit: 417 x 422 km, 51.6° (Epoch: 07 December)

Date Brightness Start Highest point End Pass type
(mag) Time Alt. Az. Time Alt. Az. Time Alt. Az.
08 Dec -0.4 18:05:09 10° WSW 18:06:07 11° SW 18:07:03 10° SSW visible
09 Dec -0.6 17:16:48 10° WSW 17:18:57 16° SW 17:21:05 10° S visible
17 Dec -0.4 07:45:26 10° S 07:47:20 14° SE 07:49:16 10° ESE visible
